TimeEDT,TemperatureF,Dew PointF,Humidity,Sea Level PressureIn,VisibilityMPH,Wind Direction,Wind SpeedMPH,Gust SpeedMPH,PrecipitationIn,Events,Conditions,WindDirDegrees,DateUTC
12:54 AM,69.1,66.0,90,29.73,-9999.0,North,-9999.0,-,N/A,,Unknown,0,2013-08-31 04:54:00
1:54 AM,68.0,66.0,93,29.73,-9999.0,North,-9999.0,-,N/A,,Unknown,0,2013-08-31 05:54:00
2:54 AM,66.9,66.0,97,29.73,-9999.0,North,-9999.0,-,N/A,,Unknown,0,2013-08-31 06:54:00
3:54 AM,66.9,66.0,97,29.74,-9999.0,North,-9999.0,-,N/A,,Unknown,0,2013-08-31 07:54:00
4:54 AM,66.9,66.0,97,29.74,-9999.0,North,-9999.0,-,N/A,,Unknown,0,2013-08-31 08:54:00
5:54 AM,66.9,64.9,93,29.75,-9999.0,North,-9999.0,-,N/A,,Unknown,0,2013-08-31 09:54:00
6:54 AM,66.9,64.9,93,29.76,-9999.0,North,-9999.0,-,N/A,,Unknown,0,2013-08-31 10:54:00
7:54 AM,70.0,66.0,87,29.77,-9999.0,North,-9999.0,-,N/A,,Unknown,0,2013-08-31 11:54:00
8:54 AM,71.1,64.9,81,29.77,-9999.0,North,-9999.0,-,N/A,,Unknown,0,2013-08-31 12:54:00
9:54 AM,73.0,64.9,76,29.78,-9999.0,North,-9999.0,-,N/A,,Unknown,0,2013-08-31 13:54:00
10:54 AM,75.9,64.9,69,29.76,-9999.0,North,-9999.0,-,N/A,,Unknown,0,2013-08-31 14:54:00
11:54 AM,75.0,64.0,69,29.75,-9999.0,North,-9999.0,-,N/A,,Unknown,0,2013-08-31 15:54:00
12:54 PM,75.0,64.0,69,29.75,-9999.0,North,-9999.0,-,N/A,,Unknown,0,2013-08-31 16:54:00
1:54 PM,72.0,66.0,81,29.75,-9999.0,North,-9999.0,-,N/A,,Unknown,0,2013-08-31 17:54:00
2:54 PM,68.0,66.9,96,29.77,-9999.0,North,-9999.0,-,0.05,,Unknown,0,2013-08-31 18:54:00
3:54 PM,69.1,66.0,90,29.76,-9999.0,North,-9999.0,-,0.01,,Unknown,0,2013-08-31 19:54:00
4:54 PM,69.1,68.0,96,29.75,-9999.0,North,-9999.0,-,N/A,,Unknown,0,2013-08-31 20:54:00
5:54 PM,70.0,68.0,93,29.74,-9999.0,North,-9999.0,-,N/A,,Unknown,0,2013-08-31 21:54:00
6:54 PM,70.0,68.0,93,29.75,-9999.0,North,-9999.0,-,N/A,,Unknown,0,2013-08-31 22:54:00
7:54 PM,69.1,68.0,96,29.76,-9999.0,North,-9999.0,-,N/A,,Unknown,0,2013-08-31 23:54:00
8:54 PM,69.1,68.0,96,29.75,-9999.0,North,-9999.0,-,N/A,,Unknown,0,2013-09-01 00:54:00
9:54 PM,69.1,68.0,96,29.77,-9999.0,North,-9999.0,-,N/A,,Unknown,0,2013-09-01 01:54:00
10:54 PM,69.1,66.9,93,29.75,-9999.0,North,-9999.0,-,N/A,,Unknown,0,2013-09-01 02:54:00
11:54 PM,68.0,66.9,96,29.75,-9999.0,North,-9999.0,-,0.02,,Unknown,0,2013-09-01 03:54:00